Sally Plumb Plumb

(23 9 1940 / Haverhill Suffolk England)

Stats

» Click to list general statistics » OR, select a date :

General Statistics

Visitors of the poet

Number of visitors of the poet’s mainpage in PoemHunter.Com

Attention : Numbers in this table does not indicate the total hits of poems of the poet, but indicates the hits of the poet’s main page.

Date Hits
10/24/2014 Friday 174
55%
10/23/2014 Thursday 111
35%
10/22/2014 Wednesday 164
51%
10/21/2014 Tuesday 139
43%
10/20/2014 Monday 137
43%
10/19/2014 Sunday 93
29%
10/18/2014 Saturday 70
22%
10/17/2014 Friday 68
21%
10/16/2014 Thursday 102
32%
10/15/2014 Wednesday 81
25%
10/14/2014 Tuesday 77
24%
10/13/2014 Monday 230
72%
10/12/2014 Sunday 252
79%
10/11/2014 Saturday 316
100%
10/10/2014 Friday 232
73%
10/09/2014 Thursday 220
69%
10/08/2014 Wednesday 79
25%
10/07/2014 Tuesday 88
27%
10/06/2014 Monday 61
19%
10/05/2014 Sunday 39
12%

Reader rating & num.of MyPoemList’s

Click the captions of columns to change the order.

# Poem Title Submit Date Reader Rating Num.of MyPoemList’s
Rating Num.R.
1 A Boy And A Frog (Kids Stuff) 10/23/2014 -- 0 0
2 The Slow Walk 08/09/2014 10.0 1 0
3 After 08/08/2014 -- 0 0
4 The Contest 06/05/2014 -- 0 0
5 Barn Owl 05/09/2014 10.0 1 0
6 Listen 05/08/2014 -- 0 0
7 Harmony 05/07/2014 10.0 1 0
8 Conflict 02/24/2014 10.0 2 0
9 Confession 02/11/2014 -- 0 0
10 Night Bird 02/07/2014 -- 0 0
11 Ebb Tide 02/03/2014 10.0 1 0
12 Many Hollows 01/03/2014 7.5 2 0
13 Night Ways 01/02/2014 -- 0 0
14 The Lion 01/01/2014 7.0 1 0
15 The Appointment 12/24/2013 -- 0 0
16 Flippancy 12/22/2013 9.0 2 0
17 Hit 12/21/2013 10.0 1 0
18 Negativity 11/11/2013 10.0 2 0
19 Too Old 10/28/2013 10.0 3 0
20 Three Phases 09/28/2013 10.0 1 0
21 Frightened Fourteen (Kids Stuff) 09/27/2013 10.0 1 0
22 Killing Time 09/23/2013 8.5 2 0
23 Rumour 08/30/2013 -- 0 0
24 Separation 08/14/2013 10.0 3 2
25 Shades Of Love 08/01/2013 10.0 4 1
26 Getting Fat 06/28/2013 9.7 3 0
27 Infinity 05/08/2013 10.0 5 1
28 Twilight 03/30/2013 10.0 4 2
29 Mind Healer 03/19/2013 9.5 2 0
30 Mute 03/18/2013 9.5 4 0
31 Down The Drain 03/07/2013 9.7 3 0
32 Monday Morning 03/06/2013 10.0 1 0
33 Imagination 03/05/2013 10.0 1 0
34 Earth Fire 12/08/2012 10.0 1 0
35 Nightmare 10/20/2012 10.0 2 0
36 Workday Weekday 10/17/2012 -- 0 0
37 Remorse 10/07/2012 -- 0 0
38 High Hopes 10/06/2012 -- 0 0
39 Lost For Words 10/04/2012 10.0 1 0
40 Confused? 08/15/2012 -- 0 0
41 Breakdown 08/14/2012 10.0 4 0
42 Departure 08/07/2012 10.0 2 0
43 Seagull 07/11/2012 10.0 4 0
44 Late Friday Night 06/29/2012 9.7 3 0
45 Rig Divers North Sea 06/28/2012 -- 0 0
46 Gossips 06/27/2012 10.0 3 0
47 Another Shade Of Blue 06/27/2012 10.0 5 1
48 Score 04/22/2012 10.0 2 0
49 Request 04/21/2012 10.0 1 0
50 Tough Love 04/18/2012 10.0 3 0
51 Stairway 03/23/2012 10.0 1 0
52 Wind And Rain 02/20/2012 10.0 3 0
53 Dawn 02/09/2012 -- 0 0
54 Defeat 02/08/2012 10.0 2 0
55 Jack Spratt 12/27/2011 9.7 3 0
56 Beyond 12/06/2011 -- 0 0
57 Undressed 12/05/2011 -- 0 0
58 Letter 11/28/2011 10.0 1 0
59 Fantasia 11/24/2011 -- 0 0
60 Betrayel 11/22/2011 -- 0 0
61 Grandmama 11/21/2011 -- 0 0
62 Crimes 11/01/2011 9.7 3 0
63 Swing High Swing Low 10/07/2011 10.0 1 1
64 Destiny 10/05/2011 10.0 1 0
65 Silken Thread 10/02/2011 -- 0 0
66 Seeing You 10/01/2011 10.0 1 0
67 Fractions 09/30/2011 -- 0 0
68 Question 09/28/2011 -- 0 0
69 Birth 09/09/2011 -- 0 0
70 The Voice Of Seduction 09/07/2011 -- 0 0
71 Second Depression 08/10/2011 -- 0 0
72 Crumbs 08/06/2011 10.0 1 0
73 Night Sky 07/08/2011 9.0 2 0
74 The Social Divide 07/04/2011 -- 0 0
75 Retort 07/01/2011 10.0 1 0
76 Mr Jones 06/15/2011 -- 0 0
77 Bitter Beginning 06/13/2011 -- 0 0
78 Imagine 06/03/2011 -- 0 0
79 Gabriel 06/02/2011 -- 0 0
80 The Shift Worker 05/25/2011 8.0 1 0
81 Downtown 05/20/2011 -- 0 0
82 Skin 05/19/2011 -- 0 0
83 Natural Tempo 05/18/2011 10.0 2 0
84 Magical Night 04/14/2011 10.0 1 0
85 Conversation 04/12/2011 -- 0 0
86 Aunt Summer Rose (kids stuff) 04/08/2011 -- 0 0
87 Eden's Gate 04/07/2011 -- 0 0
88 First Season 03/29/2011 -- 0 0
89 November 03/09/2011 10.0 1 0
90 Chores 03/08/2011 10.0 1 0
91 Torment 03/05/2011 -- 0 0
92 Over Time 02/19/2011 -- 0 0
93 The Thaw 02/18/2011 10.0 1 0
94 Jukes Song 02/14/2011 -- 0 0
95 Thinks Party 02/12/2011 10.0 2 1
96 Predator 02/11/2011 -- 0 0
97 Headless 02/08/2011 6.0 1 0
98 Annie May 01/06/2011 10.0 1 0
99 Look 01/05/2011 -- 0 0
100 Slough Of Despond 12/11/2010 10.0 2 0
101 The Dryad 12/04/2010 -- 0 0
102 Christmas Day 12/03/2010 10.0 1 0
103 Snake Skin 12/01/2010 10.0 1 0
104 Opposition 11/12/2010 -- 0 0
105 Natures Way 10/13/2010 -- 0 0
106 Bad Rivers 10/12/2010 10.0 3 0
107 Calling Wind 10/01/2010 9.8 4 0
108 Decision 09/23/2010 10.0 1 0
109 Passing Tedious Time 08/26/2010 -- 0 0
110 Zero 08/10/2010 10.0 3 0
111 1957 08/04/2010 9.5 4 0
112 Singing Lesson 08/02/2010 -- 0 0
113 Evening At Home 06/29/2010 10.0 2 0
114 Not Tonight 06/28/2010 -- 0 0
115 6 P.M. 06/08/2010 9.5 2 0
116 Orange 06/01/2010 10.0 1 0
117 Yellow Iris 05/23/2010 10.0 1 0
118 Shower 05/22/2010 -- 0 0
119 Reunion 05/17/2010 -- 0 0
120 Shadow 05/16/2010 10.0 1 0
121 Explanation 05/15/2010 -- 0 0
122 Spirit 05/14/2010 10.0 2 1
123 The Haunted 05/13/2010 10.0 1 0
124 Live Music 05/13/2010 10.0 1 0
125 Wren 03/13/2010 10.0 1 0
126 Spring Weather 03/12/2010 -- 0 0
127 Breathing 02/09/2010 10.0 3 1
128 Unfamiliar Fantasy 01/22/2010 10.0 1 0
129 Climate Change 12/26/2009 10.0 1 0
130 Missing Person 12/25/2009 -- 0 0
131 Languor 12/24/2009 10.0 1 0
132 Side Affects 12/23/2009 10.0 2 0
133 Unspeakable 12/22/2009 10.0 1 0
134 Summer 12/14/2009 10.0 1 0
135 High 12/12/2009 -- 0 0
136 Speechless 12/05/2009 10.0 2 1
137 Insight 11/14/2009 10.0 3 0
138 The Haunted Sea (kids stuff) 11/05/2009 10.0 2 0
139 Flight 10/15/2009 10.0 3 0
140 Ripple 10/09/2009 10.0 1 0
141 Perfect Silence 10/07/2009 8.9 7 1
142 Starters 10/02/2009 10.0 1 0
143 Pastel 09/24/2009 10.0 3 0
144 Sleep 09/18/2009 10.0 4 0
145 Spirit Wings 09/07/2009 10.0 1 0
146 Annoyance 09/05/2009 10.0 3 0
147 Lyric 09/02/2009 10.0 3 0
148 Weeping Willow 08/29/2009 9.5 2 3
149 Ritual 08/12/2009 10.0 1 0
150 Enrichment 08/10/2009 10.0 1 0
151 Recruit 07/30/2009 10.0 1 0
152 Bebe 07/29/2009 10.0 3 1
153 Music 07/28/2009 10.0 2 0
154 Saturday Night and Sunday Morning 07/22/2009 -- 0 1
155 The Red Indian 07/10/2009 10.0 1 0
156 Be Kind Be Sweet 07/08/2009 9.5 2 1
157 Late Afternoon 07/07/2009 10.0 1 0
158 Left Undead 07/06/2009 -- 0 0
159 Cloud 07/02/2009 10.0 3 2
160 Foxglove 06/28/2009 10.0 1 0
161 The Chain 06/17/2009 -- 0 0
162 Song Of A Dying Infant 06/03/2009 10.0 1 0
163 Confrontation (Darfur) 05/29/2009 10.0 5 0
164 Late Summer 05/18/2009 -- 0 1
165 A Question Of God 05/17/2009 9.6 10 1
166 Death Of A Woman 05/12/2009 10.0 3 0
167 Angels 05/09/2009 10.0 6 1
168 A Dark Fire 05/08/2009 10.0 6 1
169 Fight 05/07/2009 10.0 2 0
170 We Are 05/06/2009 10.0 3 0
171 Shadow Street 05/05/2009 7.3 3 0
172 Rendezvous 05/04/2009 9.5 2 0
173 Lifting 05/03/2009 10.0 1 0
174 A Humorous Death 05/02/2009 10.0 6 3
175 Thought 05/01/2009 9.5 4 0
176 Leaving 04/30/2009 -- 0 0
177 The Queue 04/29/2009 10.0 1 0
178 Granpa 04/28/2009 10.0 1 0
179 Two Confused 04/27/2009 10.0 1 1
180 Breakfast 04/26/2009 9.7 7 1
181 Happiness Is Sacred 04/25/2009 10.0 1 0
182 Crucible 04/24/2009 9.7 3 0
183 Valentine 04/23/2009 10.0 2 1
184 Hettie 04/06/2009 10.0 2 0
185 SIX A.M. 04/04/2009 -- 0 0
186 Diary 04/01/2009 9.3 3 2
187 Possession 03/31/2009 10.0 1 1
188 Pretence 03/30/2009 10.0 1 1
189 Sundial 03/29/2009 7.5 4 0
190 Sleep My Love 03/28/2009 10.0 2 2
191 Reynard 03/27/2009 -- 0 0
192 Lucifer 03/26/2009 -- 0 0
193 Picture 03/25/2009 10.0 1 2
194 Dream On 03/24/2009 10.0 1 2
195 Something Plus 03/23/2009 -- 0 1
196 Love 03/22/2009 10.0 1 0
197 Curse 03/21/2009 -- 0 0
198 Solitude 03/20/2009 10.0 1 1
199 Anger 03/19/2009 10.0 2 2
200 Moon Song 03/18/2009 10.0 2 2
201 Winter 03/15/2009 9.8 5 1
202 Summer Shade 03/15/2009 9.0 2 1
203 Skylark 03/15/2009 10.0 1 0
204 Simplicity 03/14/2009 10.0 1 0
205 Snowdrops 03/14/2009 10.0 1 1
206 Upside Down 03/14/2009 10.0 2 0
207 The Native 03/14/2009 10.0 1 0
208 Search 03/14/2009 10.0 2 0
209 Surprise Suprise 03/14/2009 10.0 1 0
210 Changeover 03/14/2009 10.0 3 1
211 He Is 03/14/2009 10.0 3 0
212 Guide 03/14/2009 10.0 2 1
213 Vow 03/14/2009 10.0 3 0
214 Cats 03/14/2009 9.5 2 1
215 Love After Death 03/14/2009 10.0 1 1
216 The Juveniles 03/14/2009 10.0 2 0
217 Serenade 03/14/2009 10.0 1 0
218 Poppies 03/14/2009 10.0 2 0
219 May 03/14/2009 10.0 1 0
220 Village Tree 03/14/2009 9.5 2 0
221 Sunrise 03/14/2009 10.0 2 1
222 Sparrows 03/14/2009 10.0 3 0
223 Figment 03/14/2009 10.0 2 1
224 A Slow Smoke 03/14/2009 9.8 4 1
225 Time Past 03/14/2009 10.0 2 2
226 Good Night 03/14/2009 10.0 2 1
227 The Satyr 03/14/2009 10.0 1 0
228 Somewhere 03/14/2009 10.0 1 1
229 Formation 03/14/2009 -- 0 1
230 Wildflowers Live On 03/14/2009 10.0 4 2
231 Apple Tree 03/14/2009 10.0 7 2
232 Purer Than White 03/14/2009 10.0 2 0
233 Goodnight Baby Love 03/14/2009 10.0 1 1
234 Storm 03/14/2009 10.0 1 2
235 Headstones 03/14/2009 10.0 1 0
236 Underfoot 03/14/2009 10.0 1 0
237 Fantasy 03/14/2009 10.0 3 1
238 Smile 03/14/2009 10.0 2 2
239 Judas 03/14/2009 10.0 1 0
240 Domestic 03/14/2009 10.0 2 0
241 Ghost 03/14/2009 10.0 2 2
242 Rowley 03/14/2009 -- 0 0
243 Starless 03/14/2009 10.0 2 2
244 Reflection 03/14/2009 -- 0 2
245 Pretty 03/14/2009 9.0 2 1
[Hata Bildir]